Torna al catalogo

EDUSAT

AttivoComunicazioniSSO
NORAD 37788·PAYLOAD·🇮🇹 Italy

Lanciato Aug 17, 2011 da Dombarovsky

Loading…

Prossimi Passaggi (prossime 24 ore)

TLE

AggiornatoSource: Space-Track

Epoca: Sep 13, 2026, 16:04 UTC

1 37788U 11044A   26256.66956556  .00000594  00000-0  92133-4 0  9992
2 37788  98.2573 156.3749 0033782 195.9280 222.3701 14.76654263809582

Traccia EDUSAT in tempo reale con AllMySat

Download on the App Store